Wind_Speed
7 8 9 10 11 12 13 14 15 16 18 18 18 16 17 19 15 17 16 10 12 10 9 11 12 13 7 10 1 8 3 8 6 4 3 3 1 3 4 4 5 3 5 3 3 3 4 19 23 4 6 22 23 26
6 7 8 9 10 12 12 13 13 14 16 18 17 16 16 18 13 16 15 12 15 13 10 11 10 9 14 12 10 4 1 2 1 1 1 1 2 3 3 3 4 4 1 4 4 4 19 29 29 27 26 26 32 24
5 6 6 8 10 11 12 12 13 14 15 16 14 14 15 14 12 11 19 10 19 20 15 10 8 8 12 13 13 4 1 1 1 1 1 0 3 1 2 3 4 4 4 3 6 5 22 34 34 29 14 9 26 25
5 5 5 7 9 11 11 12 13 14 14 14 14 13 11 12 10 9 14 17 7 6 4 4 6 8 8 11 16 12 5 2 4 2 2 1 2 2 2 4 3 4 11 6 5 7 24 28 36 25 19 15 32 32
3 4 5 7 9 10 11 12 13 15 15 13 13 12 9 11 8 6 8 19 13 3 4 5 7 8 7 6 12 13 11 10 5 3 4 1 4 4 5 4 3 12 7 5 3 13 9 17 25 25 22 28 28 29
3 4 5 8 9 9 10 11 13 15 15 12 13 9 9 9 11 5 5 12 13 10 3 2 4 5 10 8 10 12 11 10 6 4 2 4 5 4 3 3 7 10 18 21 7 14 20 12 24 24 25 23 28 29
3 4 6 8 9 8 9 10 12 15 13 10 10 8 10 10 10 9 4 7 7 5 3 2 2 3 12 7 8 9 9 8 8 3 3 3 3 4 1 2 14 11 15 21 17 15 16 24 21 24 26 26 26 26
2 4 6 8 9 8 9 9 12 14 11 7 7 4 8 9 13 10 11 9 5 5 4 3 4 2 12 6 4 9 6 4 6 4 4 4 8 4 2 19 19 15 9 15 18 18 17 16 16 22 24 24 27 27
2 4 7 8 8 8 9 10 13 14 9 4 6 5 4 8 7 7 6 10 14 7 3 4 2 3 10 8 5 5 4 3 4 4 4 5 2 3 6 22 18 15 12 5 14 16 17 19 20 20 20 21 21 20
3 5 7 7 7 8 9 11 14 12 7 4 3 3 3 6 6 4 2 3 4 5 6 4 7 2 8 7 6 8 3 2 2 2 4 3 2 16 26 19 15 11 9 10 7 11 15 15 16 16 17 16 18 18
3 5 6 6 6 7 10 13 12 10 10 6 4 4 6 6 4 3 3 5 5 4 7 7 6 6 4 3 3 3 2 2 3 4 2 4 5 21 30 22 11 8 8 9 10 8 10 11 11 12 13 14 15 15
3 5 5 5 5 7 10 11 11 10 9 6 3 5 5 5 5 5 3 4 6 1 8 7 7 6 4 3 3 1 2 3 3 6 3 5 5 24 29 19 13 6 3 5 6 8 9 11 10 10 11 11 10 9
3 4 4 4 4 6 9 9 11 13 7 5 4 3 4 5 9 4 5 4 3 7 7 11 7 5 3 3 3 2 4 1 3 3 2 3 21 25 29 12 6 5 3 1 1 2 4 6 6 5 6 10 12 9
4 4 3 3 4 6 6 6 9 9 4 4 4 5 3 3 1 0 1 3 4 7 8 10 6 3 3 4 3 3 2 4 3 4 2 9 27 23 17 18 18 9 2 3 5 3 6 5 6 7 5 5 9 8
3 3 3 3 3 4 4 7 9 9 5 4 4 3 2 2 1 1 2 3 2 4 8 6 4 4 3 3 5 3 4 4 3 2 3 23 24 26 23 18 20 26 13 8 7 4 7 6 6 12 13 12 14 17
3 2 2 3 4 6 3 5 7 7 4 4 5 3 1 2 1 3 4 7 3 6 6 2 2 2 4 2 4 4 3 4 2 6 18 18 22 22 18 13 14 14 14 10 4 4 3 2 3 6 8 9 9 10
4 3 4 4 7 5 3 4 5 4 4 3 3 3 1 3 3 8 9 9 7 4 1 2 3 2 1 3 3 1 1 3 9 16 14 17 18 17 17 13 15 13 12 12 7 7 7 2 4 5 5 4 4 3
3 4 5 5 7 7 10 6 4 4 4 4 1 3 3 4 5 5 6 7 1 2 2 2 3 4 2 2 0 3 5 11 11 12 14 15 11 13 13 13 10 8 10 11 10 5 4 11 8 9 9 9 9 6
3 4 5 4 2 2 2 4 4 3 4 2 4 4 2 4 5 8 4 5 5 6 7 4 4 2 2 3 3 4 8 12 14 10 9 11 8 11 13 15 14 11 3 8 8 9 8 10 12 12 10 9 3 4
5 5 4 2 2 3 2 3 3 2 1 1 4 3 2 3 3 6 9 4 2 2 4 3 2 4 4 2 4 8 11 7 5 6 7 9 9 8 13 16 14 10 11 10 6 7 10 10 10 15 10 2 4 4
5 7 6 6 6 5 2 2 2 2 0 1 2 2 1 2 3 4 8 9 6 5 4 4 5 5 5 4 3 6 5 7 7 5 5 7 9 8 10 14 14 11 13 11 9 9 10 11 9 10 8 6 3 2
6 6 4 3 3 2 2 2 2 1 1 1 1 1 1 1 2 2 3 5 3 3 4 5 5 5 3 3 4 5 4 1 4 3 3 6 8 9 12 15 15 10 10 14 10 9 10 9 11 10 13 10 8 3
6 4 1 1 1 2 2 2 1 1 1 1 1 1 2 2 2 3 1 2 3 5 3 3 3 0 3 4 3 1 1 3 2 3 2 5 8 9 11 15 14 7 8 11 11 12 8 7 7 7 10 12 7 3
4 1 0 0 1 1 1 2 2 2 2 1 1 2 1 1 5 3 2 3 6 4 1 4 5 3 1 3 5 2 3 3 4 3 5 5 7 8 10 14 14 7 10 13 14 8 7 7 8 6 8 9 11 11
0 1 0 1 1 1 2 2 1 2 1 1 1 2 1 3 3 1 2 3 7 4 3 3 2 4 4 4 4 4 5 2 5 9 5 4 5 8 10 12 11 11 13 16 11 12 8 6 7 8 8 8 10 9
1 2 2 1 1 1 2 2 1 1 2 2 1 2 2 3 4 1 4 7 2 3 1 1 2 4 6 7 5 7 6 4 4 8 4 2 6 9 12 13 12 11 13 15 11 10 8 5 4 8 11 10 9 9
1 2 2 2 1 2 2 0 2 2 1 1 1 2 1 1 1 2 5 5 3 1 6 8 8 6 8 11 9 8 3 4 6 7 4 5 8 10 12 14 13 9 13 14 9 9 7 6 6 9 11 10 11 9
3 2 2 5 2 2 1 1 1 1 1 0 2 1 1 4 4 3 3 4 2 3 5 2 4 6 7 7 7 6 4 4 5 4 4 7 12 14 12 10 7 6 9 12 9 8 5 7 8 10 7 6 5 6
2 1 1 2 2 2 1 1 1 0 1 1 2 2 2 1 2 3 3 3 6 6 5 4 4 1 4 6 2 2 2 2 3 7 12 16 16 13 12 10 7 8 7 9 12 10 6 5 7 9 10 11 12 12
1 1 2 3 3 3 3 2 1 0 2 4 5 5 4 6 4 3 4 7 7 6 5 4 4 7 7 4 3 5 5 5 6 10 14 14 15 14 12 9 7 8 7 7 7 11 14 10 10 11 11 10 9 10
0 0 2 2 2 1 1 2 4 6 7 7 5 6 7 7 6 7 6 5 5 7 6 8 8 6 6 5 4 4 5 8 7 11 15 18 15 12 10 9 9 6 4 4 5 9 11 12 13 13 11 10 10 10
3 3 1 0 1 4 9 9 8 9 10 11 11 9 7 8 9 9 9 9 8 7 7 7 9 7 5 4 4 6 4 7 8 9 14 16 13 10 10 8 5 5 5 3 6 8 10 13 14 14 13 12 11 12
3 3 2 2 2 2 2 3 3 3 4 5 7 8 8 7 4 3 5 5 3 4 5 6 5 3 3 3 4 4 5 6 7 9 13 13 14 8 9 8 7 6 9 10 11 11 12 14 15 15 15 14 13 13
Wind_Direction
16 18 19 18 17 20 21 21 20 20 20 21 24 31 36 38 55 39 32 55 98 103 92 44 47 35 21 0 110 321 17 10 16 45 42 343 319 300 325 269 282 298 333 316 313 317 330 333 333 322 283 305 303 305
12 19 19 15 17 17 17 17 16 17 18 21 28 33 37 42 64 46 44 84 90 88 88 72 49 41 21 25 14 25 101 333 82 74 43 337 311 332 318 291 320 342 135 304 294 283 294 310 307 305 304 292 299 293
14 17 13 13 15 14 14 12 11 12 13 16 21 24 27 31 42 53 49 99 105 99 89 71 53 19 11 12 16 26 315 310 182 315 129 229 290 191 285 266 295 293 3 275 336 338 328 321 327 326 319 340 4 83
11 4 7 12 12 12 11 10 7 6 7 6 12 14 14 17 29 57 45 46 107 101 108 64 70 17 356 2 22 23 18 97 112 117 66 18 287 278 284 290 286 309 313 318 261 312 323 350 359 55 69 64 60 68
358 357 2 7 6 6 7 8 7 4 2 2 6 12 20 21 32 47 33 26 32 119 126 128 71 26 18 2 21 29 63 91 112 78 52 3 307 302 299 294 338 347 340 339 317 356 348 332 31 43 57 71 77 80
333 359 1 1 359 360 4 7 6 0 2 3 8 29 40 43 27 22 13 16 31 111 110 85 111 49 11 357 1 14 23 35 61 76 20 337 312 342 342 335 356 6 21 17 14 32 24 34 35 49 62 76 70 81
335 350 355 353 354 357 2 4 2 357 2 12 30 56 44 44 43 48 30 353 36 65 60 59 32 14 358 345 353 3 21 39 35 76 9 316 302 333 278 334 342 9 21 30 39 31 33 38 41 54 65 76 85 85
323 339 347 348 352 357 360 1 359 353 355 17 17 55 46 45 45 43 46 50 47 54 54 67 316 13 5 350 353 355 9 25 24 17 3 349 318 330 17 339 7 0 354 29 42 59 53 65 69 72 73 74 75 74
317 334 350 348 356 359 359 358 352 349 351 29 29 86 60 25 24 23 74 49 52 55 73 63 72 288 347 3 342 345 345 30 4 16 16 4 300 10 346 344 360 16 12 10 50 72 77 68 64 68 68 70 75 77
323 346 350 354 4 3 2 2 359 7 25 66 71 62 43 5 33 53 357 19 39 39 42 60 356 313 335 345 341 354 12 36 27 322 329 28 291 0 356 6 11 18 33 51 89 76 70 61 59 67 64 65 72 80
336 350 356 8 11 6 7 11 19 38 53 57 44 36 13 23 41 35 38 43 17 38 11 0 356 328 349 354 301 353 312 325 47 340 62 353 356 342 355 354 27 45 52 54 61 72 77 78 74 64 59 51 49 44
350 1 12 24 19 9 10 16 29 24 18 33 53 47 34 28 29 55 10 17 46 14 344 336 330 323 313 305 300 335 2 30 37 342 38 356 303 347 355 348 12 25 69 64 70 78 84 75 68 67 69 74 64 71
9 14 31 38 18 13 12 22 19 15 35 40 36 50 19 23 37 45 344 332 355 352 355 339 336 332 308 289 285 337 67 125 347 48 55 281 318 1 347 16 347 356 54 197 8 41 55 51 42 37 69 62 45 39
18 35 50 31 24 15 26 39 23 20 29 41 40 20 84 358 43 328 266 314 305 290 322 331 321 314 324 334 337 56 9 63 41 30 21 303 344 360 359 16 7 360 100 79 33 123 34 25 29 32 26 48 35 51
29 61 33 31 23 54 77 29 25 36 41 55 46 44 49 58 28 337 320 307 344 323 342 335 329 337 318 21 29 24 34 54 52 337 269 337 1 5 6 21 37 44 70 154 78 77 80 61 72 77 76 91 92 86
47 26 51 61 59 125 59 31 42 42 59 60 53 63 107 303 357 348 329 318 318 330 328 302 323 30 31 46 39 14 47 32 288 267 335 356 8 16 22 41 42 38 44 46 76 31 84 97 78 73 70 69 75 77
38 54 81 84 108 97 58 62 45 47 54 60 55 48 60 352 348 360 355 347 331 328 351 37 50 31 8 47 43 45 129 229 305 335 6 9 13 30 32 42 52 40 51 48 43 27 25 341 309 315 325 360 360 8
36 81 85 105 122 100 62 52 55 59 61 60 67 52 44 14 340 355 344 344 55 56 51 87 94 37 60 80 289 242 274 331 357 358 15 26 45 48 39 34 29 24 56 47 36 16 23 29 29 11 335 299 279 279
75 102 91 120 125 70 48 38 45 83 55 34 31 32 37 22 32 25 15 63 94 104 112 103 81 99 132 181 246 338 3 350 342 2 44 36 46 38 30 19 8 25 63 58 58 45 12 8 354 338 323 312 257 287
117 118 105 118 61 47 70 51 40 79 69 30 8 31 42 9 51 44 52 86 144 82 67 69 119 147 142 100 27 12 3 12 22 20 57 39 38 34 31 24 17 21 45 54 48 16 6 16 21 9 4 359 39 320
131 134 112 97 63 58 76 45 63 52 37 324 41 58 57 29 10 42 46 45 59 43 60 102 104 96 83 91 69 35 51 74 46 53 65 43 29 23 19 19 13 5 17 17 20 19 17 12 8 360 19 9 99 212
139 138 118 59 39 50 82 40 356 284 313 179 247 310 271 285 308 22 72 46 60 68 102 103 86 74 113 126 80 34 31 200 22 51 64 12 9 13 8 10 11 6 13 27 13 5 7 15 27 4 3 4 348 10
132 130 84 37 8 57 83 302 289 232 208 262 204 261 239 241 208 161 85 106 135 135 104 34 25 184 210 197 191 237 341 354 356 0 271 337 3 16 6 8 9 355 5 5 3 0 351 357 1 1 20 24 11 348
161 158 151 38 355 322 273 247 228 251 220 248 235 264 249 326 185 210 196 202 176 177 134 31 57 160 105 199 206 209 267 319 359 337 19 311 333 360 5 7 9 347 350 351 339 327 338 6 0 360 6 5 359 357
197 181 183 212 227 283 268 264 161 29 304 272 281 326 80 108 310 270 224 197 180 175 167 148 96 96 61 75 201 241 251 277 3 356 351 329 330 354 359 1 2 8 9 5 18 2 327 314 3 356 353 354 354 3
201 204 197 200 353 183 7 46 90 256 271 284 292 155 152 166 194 272 354 16 98 159 117 268 301 350 336 332 329 331 321 225 299 334 330 239 322 338 351 351 355 6 359 356 344 347 12 35 1 346 339 342 341 340
317 247 207 205 124 90 71 357 290 278 314 352 356 345 299 244 297 237 143 170 166 200 293 284 286 292 310 311 313 331 28 291 284 305 287 287 320 337 340 341 346 355 344 345 334 340 336 325 331 330 325 331 330 343
256 295 176 176 146 102 86 303 274 222 173 11 307 321 265 194 225 215 192 159 236 327 349 321 290 297 323 353 338 306 242 266 280 253 256 304 317 318 318 322 306 318 332 351 349 343 341 340 345 350 354 334 343 348
246 250 231 165 146 170 203 239 332 156 194 284 210 251 270 261 323 300 286 261 264 248 278 289 294 252 319 323 348 182 239 263 261 297 320 327 325 320 320 323 296 287 311 339 7 2 342 326 327 330 331 325 316 308
242 251 171 151 173 208 197 179 205 15 289 273 266 252 258 298 310 323 297 298 302 253 271 254 286 292 307 303 233 228 261 287 319 344 355 349 338 332 331 326 297 291 293 321 332 356 356 336 322 317 321 320 312 310
337 186 172 177 206 193 210 265 263 280 295 271 256 271 270 267 269 278 260 268 267 264 275 267 254 267 289 289 289 289 315 335 350 356 359 357 349 343 338 325 310 295 308 320 314 345 356 357 359 356 350 346 343 340
191 180 157 206 246 272 289 281 276 275 284 279 277 281 270 275 283 286 256 239 266 272 237 248 270 269 260 290 297 320 349 356 349 346 359 2 359 357 2 359 347 332 335 284 310 325 330 340 349 356 358 353 348 345
183 212 220 240 254 266 283 275 274 279 274 270 279 277 264 259 250 250 259 253 263 256 260 258 268 274 275 308 328 337 330 327 331 345 358 7 9 7 15 18 11 342 325 316 310 310 316 325 332 338 342 342 340 339
Height
1597 1596 1595 1594 1592 1589 1587 1584 1582 1579 1576 1573 1570 1567 1565 1562 1560 1559 1557 1556 1557 1559 1564 1566 1567 1567 1566 1565 1566 1562 1561 1559 1558 1563 1564 1566 1564 1559 1558 1549 1542 1542 1538 1531 1524 1517 1510 1502 1496 1493 1490 1481 1477 1473
1598 1597 1596 1595 1593 1590 1588 1586 1584 1581 1579 1576 1573 1570 1568 1565 1564 1563 1560 1560 1560 1561 1567 1569 1569 1569 1568 1567 1565 1564 1566 1565 1564 1565 1567 1567 1567 1564 1561 1557 1541 1544 1540 1534 1530 1525 1514 1509 1501 1491 1484 1477 1468 1468
1599 1598 1597 1596 1594 1592 1590 1588 1585 1583 1580 1578 1575 1573 1570 1569 1567 1566 1564 1563 1563 1565 1570 1571 1571 1571 1570 1568 1567 1565 1565 1564 1564 1565 1565 1567 1567 1566 1561 1555 1549 1538 1537 1535 1532 1520 1516 1505 1495 1479 1474 1475 1465 1458
1599 1599 1598 1596 1595 1593 1591 1589 1586 1584 1581 1579 1577 1574 1572 1570 1569 1569 1567 1566 1566 1568 1571 1575 1573 1572 1571 1570 1567 1565 1563 1563 1565 1565 1567 1568 1567 1565 1557 1553 1550 1545 1540 1534 1528 1523 1515 1505 1495 1482 1476 1480 1473 1472
1599 1599 1598 1597 1595 1593 1591 1590 1587 1584 1582 1580 1578 1575 1573 1572 1570 1570 1569 1568 1567 1570 1571 1574 1575 1574 1573 1572 1570 1567 1565 1564 1564 1566 1568 1568 1567 1564 1559 1555 1551 1548 1542 1536 1530 1530 1526 1518 1507 1498 1492 1490 1488 1486
1600 1599 1598 1597 1596 1594 1592 1590 1588 1585 1583 1580 1578 1576 1575 1574 1572 1572 1571 1570 1569 1569 1572 1574 1577 1576 1574 1572 1571 1569 1567 1564 1565 1568 1569 1568 1567 1566 1563 1558 1559 1554 1549 1543 1536 1532 1526 1520 1515 1511 1507 1504 1500 1497
1600 1599 1598 1597 1596 1594 1592 1590 1588 1585 1583 1581 1579 1578 1578 1577 1576 1575 1576 1575 1573 1572 1573 1576 1577 1577 1575 1573 1571 1569 1569 1569 1567 1569 1570 1569 1566 1565 1565 1568 1555 1553 1550 1546 1540 1534 1531 1526 1524 1520 1517 1514 1511 1508
1599 1599 1598 1597 1595 1594 1592 1590 1588 1585 1583 1582 1581 1580 1580 1579 1578 1578 1577 1575 1575 1575 1576 1579 1580 1577 1577 1575 1572 1571 1571 1570 1570 1570 1570 1569 1566 1565 1567 1561 1556 1554 1552 1550 1546 1542 1538 1535 1532 1528 1526 1523 1519 1516
1600 1599 1597 1596 1595 1593 1592 1590 1588 1585 1582 1582 1581 1581 1581 1580 1580 1580 1580 1579 1578 1580 1579 1583 1589 1587 1579 1577 1575 1574 1573 1573 1574 1572 1572 1571 1568 1565 1565 1562 1558 1555 1553 1552 1550 1547 1544 1541 1538 1535 1533 1531 1527 1525
1599 1598 1597 1596 1595 1593 1592 1590 1587 1584 1582 1581 1582 1582 1582 1583 1582 1582 1582 1582 1581 1583 1584 1587 1588 1585 1583 1580 1577 1577 1574 1575 1578 1577 1575 1574 1571 1570 1566 1563 1560 1558 1556 1554 1552 1551 1549 1546 1544 1542 1539 1537 1535 1533
1599 1598 1597 1596 1595 1594 1592 1590 1588 1585 1584 1583 1583 1584 1584 1583 1583 1583 1583 1584 1586 1589 1590 1589 1589 1587 1585 1584 1581 1580 1579 1577 1582 1583 1580 1579 1576 1573 1567 1564 1562 1560 1559 1557 1555 1553 1552 1550 1548 1546 1544 1542 1539 1537
1599 1598 1597 1596 1595 1594 1593 1591 1589 1588 1586 1586 1585 1585 1585 1586 1586 1586 1591 1591 1592 1596 1592 1591 1590 1588 1586 1584 1582 1580 1579 1579 1582 1585 1584 1583 1583 1574 1570 1565 1562 1560 1560 1560 1558 1557 1554 1553 1552 1550 1549 1547 1546 1545
1599 1598 1597 1596 1595 1595 1593 1592 1590 1589 1587 1587 1587 1587 1588 1591 1595 1597 1599 1600 1600 1596 1595 1592 1590 1587 1586 1584 1582 1581 1580 1587 1586 1589 1593 1594 1583 1578 1565 1561 1561 1559 1559 1559 1560 1559 1558 1556 1555 1554 1552 1551 1550 1548
1598 1598 1598 1597 1596 1595 1594 1593 1592 1590 1589 1589 1589 1594 1596 1601 1600 1600 1601 1600 1600 1596 1595 1592 1590 1589 1586 1585 1583 1582 1586 1588 1595 1594 1599 1593 1584 1580 1574 1568 1564 1560 1558 1559 1559 1559 1559 1558 1557 1556 1555 1554 1553 1551
1599 1599 1598 1597 1596 1595 1595 1594 1593 1591 1591 1592 1594 1602 1600 1600 1600 1600 1599 1598 1598 1596 1594 1593 1591 1590 1588 1587 1589 1590 1591 1597 1601 1602 1598 1591 1586 1581 1575 1572 1568 1562 1559 1561 1561 1561 1561 1560 1559 1558 1557 1556 1556 1554
1599 1599 1598 1598 1597 1597 1596 1595 1594 1593 1594 1596 1599 1601 1601 1601 1600 1599 1598 1597 1596 1595 1594 1594 1593 1593 1594 1596 1596 1601 1600 1604 1606 1600 1596 1591 1588 1583 1578 1575 1573 1570 1568 1566 1565 1564 1563 1562 1561 1560 1559 1559 1557 1556
1600 1599 1599 1599 1598 1598 1598 1597 1596 1596 1598 1600 1602 1602 1601 1601 1600 1599 1598 1597 1595 1595 1594 1594 1596 1599 1599 1602 1604 1605 1606 1604 1601 1598 1595 1592 1589 1586 1581 1578 1577 1574 1572 1570 1569 1566 1565 1564 1563 1562 1561 1560 1559 1557
1600 1600 1600 1600 1600 1600 1599 1598 1599 1600 1603 1604 1603 1603 1602 1601 1600 1599 1598 1596 1595 1595 1595 1597 1599 1601 1604 1604 1607 1605 1603 1602 1600 1598 1596 1593 1591 1588 1585 1582 1579 1577 1575 1573 1570 1569 1568 1566 1564 1562 1560 1559 1558 1557
1601 1601 1601 1601 1601 1601 1601 1602 1602 1603 1605 1605 1605 1604 1603 1602 1601 1599 1597 1596 1596 1596 1597 1598 1601 1604 1605 1605 1604 1603 1603 1602 1600 1598 1597 1595 1592 1590 1587 1585 1582 1578 1576 1574 1572 1570 1569 1567 1564 1562 1559 1557 1556 1556
1602 1602 1603 1603 1603 1602 1603 1604 1604 1605 1605 1606 1605 1604 1603 1603 1602 1601 1599 1598 1597 1597 1598 1599 1602 1603 1603 1604 1603 1603 1602 1601 1600 1599 1598 1596 1594 1592 1589 1586 1583 1580 1577 1575 1573 1572 1569 1567 1565 1562 1559 1557 1556 1556
1604 1604 1604 1604 1604 1604 1605 1605 1605 1606 1606 1606 1605 1605 1605 1604 1603 1602 1600 1600 1599 1601 1602 1603 1604 1604 1604 1604 1604 1604 1602 1601 1600 1599 1598 1597 1595 1593 1590 1587 1584 1581 1578 1576 1574 1572 1570 1567 1564 1563 1561 1559 1557 1556
1605 1605 1606 1606 1605 1605 1606 1606 1607 1607 1607 1606 1606 1606 1605 1605 1604 1603 1603 1603 1604 1605 1605 1605 1605 1605 1604 1604 1604 1604 1603 1602 1601 1600 1598 1597 1596 1593 1590 1587 1584 1581 1579 1577 1575 1573 1571 1569 1566 1564 1561 1559 1557 1556
1606 1607 1607 1607 1606 1606 1608 1606 1606 1606 1606 1606 1606 1605 1605 1604 1604 1605 1604 1605 1605 1606 1606 1605 1604 1604 1603 1604 1604 1604 1603 1602 1601 1600 1598 1597 1595 1593 1591 1588 1585 1582 1580 1578 1576 1573 1571 1569 1566 1565 1563 1561 1559 1558
1607 1607 1607 1607 1607 1607 1607 1606 1606 1605 1605 1606 1605 1604 1604 1604 1605 1604 1604 1604 1605 1605 1605 1605 1603 1603 1604 1604 1604 1603 1603 1602 1601 1599 1598 1597 1595 1593 1591 1588 1585 1583 1580 1578 1575 1572 1571 1569 1567 1565 1564 1562 1560 1558
1609 1610 1609 1607 1607 1607 1606 1605 1605 1606 1606 1605 1605 1604 1604 1606 1606 1603 1603 1603 1603 1604 1605 1605 1604 1604 1604 1603 1603 1603 1602 1602 1601 1599 1598 1596 1595 1593 1591 1588 1586 1583 1580 1577 1574 1571 1569 1568 1567 1566 1564 1562 1560 1559
1607 1608 1608 1607 1607 1607 1607 1607 1607 1607 1606 1605 1604 1605 1605 1605 1605 1605 1605 1603 1604 1604 1604 1604 1604 1603 1603 1603 1602 1601 1600 1599 1599 1598 1596 1595 1594 1592 1590 1587 1584 1582 1579 1576 1574 1572 1570 1568 1567 1566 1564 1562 1561 1559
1607 1606 1606 1607 1607 1607 1607 1607 1607 1607 1606 1605 1605 1605 1604 1604 1605 1604 1603 1603 1604 1604 1603 1603 1603 1603 1602 1601 1600 1599 1598 1598 1598 1597 1595 1594 1592 1590 1588 1586 1583 1581 1578 1576 1574 1572 1570 1569 1567 1566 1564 1562 1560 1558
1606 1605 1605 1606 1606 1607 1607 1607 1607 1606 1606 1606 1606 1605 1604 1604 1604 1603 1602 1603 1603 1603 1603 1602 1601 1601 1600 1599 1598 1597 1596 1596 1596 1595 1595 1594 1591 1589 1586 1584 1582 1580 1577 1575 1573 1572 1570 1569 1567 1565 1564 1562 1560 1559
1605 1605 1605 1605 1605 1606 1606 1606 1606 1606 1606 1605 1605 1604 1603 1603 1603 1602 1602 1602 1603 1602 1602 1602 1601 1600 1599 1599 1598 1598 1597 1597 1596 1595 1593 1591 1588 1586 1583 1581 1579 1578 1577 1575 1574 1572 1570 1569 1567 1566 1564 1562 1560 1558
1603 1603 1603 1604 1604 1605 1605 1605 1605 1605 1605 1604 1604 1603 1603 1602 1601 1601 1601 1600 1599 1600 1600 1600 1600 1599 1598 1598 1597 1597 1597 1596 1595 1594 1591 1588 1585 1582 1580 1579 1577 1576 1575 1575 1574 1572 1571 1568 1567 1565 1563 1560 1559 1557
1602 1603 1603 1603 1603 1603 1603 1604 1603 1603 1602 1602 1601 1601 1600 1599 1599 1599 1598 1598 1598 1598 1598 1598 1598 1597 1597 1597 1597 1596 1596 1595 1593 1592 1590 1586 1583 1581 1578 1577 1575 1574 1574 1574 1573 1572 1570 1568 1566 1563 1561 1559 1557 1556
1601 1602 1602 1602 1602 1603 1602 1601 1600 1599 1599 1598 1598 1597 1597 1597 1596 1595 1595 1595 1595 1595 1595 1596 1596 1595 1595 1596 1595 1595 1594 1594 1592 1591 1589 1586 1583 1581 1579 1577 1575 1575 1574 1573 1572 1571 1569 1568 1566 1563 1561 1559 1557 1555
1600 1601 1601 1601 1601 1600 1600 1600 1598 1597 1596 1595 1594 1594 1594 1595 1594 1594 1593 1593 1594 1594 1593 1593 1593 1594 1594 1594 1593 1593 1593 1592 1591 1589 1588 1586 1584 1582 1580 1578 1577 1575 1574 1572 1571 1569 1568 1566 1564 1562 1560 1558 1556 1554